Lid_Strength_Index
3 3 3 2 3 3 3 2 2 2 2 2 2 2 2 2 2 4 7 5 1 0 0 1 2 2 2 4 3 4 9 11 10 10 9 6 7 6 6 8 7 6 7 5 3
3 3 3 3 3 3 3 3 2 2 2 2 2 2 2 2 5 7 3 1 1 1 4 3 4 3 5 5 5 7 10 10 8 7 7 6 6 6 7 8 8 7 6 5 3
4 4 3 3 3 3 3 3 3 3 2 2 2 2 2 3 8 7 1 1 2 2 4 5 4 5 6 5 7 6 10 8 8 7 6 7 6 5 6 8 8 7 6 5 4
4 4 4 4 4 3 3 3 3 3 3 2 3 3 3 5 14 6 3 3 3 4 5 6 7 8 8 8 6 8 7 7 7 6 6 7 6 7 7 7 5 6 5 5 5
4 4 4 4 4 4 4 3 3 3 3 3 3 3 5 9 9 5 3 3 5 6 7 8 9 9 11 9 7 8 7 7 7 7 7 6 7 8 7 6 5 5 7 6 5
4 4 4 4 4 4 4 3 3 3 3 3 3 3 7 12 6 5 5 6 5 5 6 6 8 7 9 10 9 7 7 7 6 7 7 8 8 7 7 5 6 5 6 7 6
5 4 4 4 4 4 4 3 3 3 3 3 3 6 9 10 5 5 4 4 5 5 7 5 6 8 8 10 8 9 10 8 8 7 7 6 9 9 7 6 6 5 5 6 7
4 5 4 4 4 4 4 3 3 4 4 4 4 7 11 6 5 4 5 6 5 5 6 5 5 7 9 7 9 11 11 14 10 8 7 8 13 8 6 7 7 6 5 5 6
5 5 5 4 4 4 4 4 4 4 5 5 7 8 12 5 7 5 5 6 5 4 4 3 3 7 7 11 12 11 15 14 12 8 8 9 12 8 6 7 7 6 6 5 5
5 5 5 5 4 4 4 5 5 6 7 7 7 10 9 10 6 4 2 2 4 4 4 4 5 8 8 11 17 14 13 13 13 11 9 10 9 8 7 7 7 6 6 5 5
5 5 5 4 4 4 5 7 11 11 10 12 11 11 9 7 4 4 2 3 3 5 9 6 9 12 10 9 9 10 12 13 11 10 10 10 11 9 7 7 7 7 6 6 5
5 5 5 4 4 4 6 10 10 9 14 9 9 9 7 5 7 4 2 6 7 9 8 9 12 8 8 8 10 10 12 13 12 11 11 11 11 9 9 8 7 6 6 6 5
5 5 5 5 4 6 7 9 6 6 13 11 9 9 8 5 7 6 4 6 8 10 10 12 10 8 9 10 11 11 12 13 13 11 10 11 13 12 9 8 7 6 6 5 6
5 5 5 4 7 7 9 6 5 5 16 14 12 8 6 5 8 4 4 6 8 11 10 11 8 9 10 11 10 14 9 10 12 13 16 10 17 13 11 9 8 7 6 6 6
5 5 4 4 7 8 7 5 5 7 22 13 12 5 5 7 6 6 3 6 10 10 10 11 11 11 13 11 9 12 9 10 11 13 14 14 16 15 11 12 9 7 6 6 5
5 5 5 6 6 6 5 5 8 16 22 16 11 10 9 7 7 6 6 4 5 9 9 10 7 8 10 10 9 9 11 11 11 14 19 15 15 16 14 11 9 7 6 6 5
5 5 6 6 9 5 5 8 16 20 14 16 14 10 10 10 9 8 9 10 11 14 13 10 11 9 8 12 9 11 13 18 20 20 20 13 15 15 11 10 9 7 6 5 4
5 5 6 7 5 5 7 12 21 18 17 12 12 10 12 10 10 10 10 11 8 11 13 15 17 11 9 11 14 13 14 18 22 20 18 13 17 14 10 9 6 8 6 5 5
5 6 6 6 5 5 10 18 19 17 14 14 12 13 12 10 11 11 11 11 9 9 14 15 16 10 9 9 11 13 16 11 17 16 19 15 13 10 8 9 9 9 8 6 7
7 8 8 6 5 7 13 17 16 13 12 12 15 12 15 13 12 12 12 9 10 8 8 12 17 11 10 9 9 11 10 17 16 21 21 17 15 18 15 14 12 11 10 9 9
7 10 8 6 6 10 16 16 15 12 11 13 13 13 12 13 12 13 12 10 9 9 9 10 13 14 11 13 14 13 15 14 14 15 19 20 19 15 16 15 14 13 11 11 11
8 13 7 6 12 13 15 14 13 13 10 11 10 11 12 12 14 13 13 11 8 9 12 10 13 17 15 11 10 11 14 15 17 17 15 17 19 14 15 15 15 14 13 11 11
11 11 7 7 15 14 13 14 13 14 12 12 12 10 10 12 15 13 12 9 9 10 11 10 13 18 16 13 10 15 15 16 15 15 16 19 19 14 15 16 15 16 14 13 13
10 13 10 9 10 14 15 16 16 12 12 10 10 10 12 13 11 14 13 11 9 10 7 8 12 15 18 17 14 16 17 17 15 16 16 16 18 17 16 17 16 16 15 14 14
10 12 11 14 12 12 13 15 16 16 12 10 12 11 12 15 14 14 12 11 10 9 10 11 15 14 14 14 14 15 17 18 19 18 18 19 19 18 16 16 16 15 15 15 15
10 11 13 12 12 13 13 15 15 14 13 13 13 11 11 13 13 15 12 12 13 11 11 10 15 14 16 14 14 15 16 17 18 19 18 17 18 16 14 14 16 16 16 16 16
6 7 10 11 13 14 13 14 14 13 11 9 10 11 12 11 9 9 9 10 11 12 12 12 14 15 18 15 15 17 17 17 18 18 19 21 18 16 16 15 17 16 16 16 16